Terminal Aerodrome Forecast
Issued by NWS Sioux Falls, SD

Home | Current Version | Previous Version | Graphics & Text | Print | Product List | Glossary Off
Versions: 1 2 3 4 5 6 7 8 9 10 11 12 13 14 15 16 17 18 19 20 21 22 23 24 25 26

000
FTUS43 KFSD 251738
TAFSUX
TAF
KSUX 251738Z 2518/2618 07014G21KT P6SM SCT017 BKN040
     FM252100 07014G20KT P6SM SCT040 BKN200
     FM260100 09005KT P6SM SCT040
     FM261400 11013KT P6SM SCT200=

USA.gov is the U.S. government's official web portal to all federal, state and local government web resources and services.